Location: Gesvres
(49.0440°N, 2.8518°E)
Time: 08:01:58
(UTC+00:00)

ATLAS 2AS CENTAUR R/B - Pass Details

Date: 28 January 2023
Orbit: 986 x 1226 km, 63.7° (Epoch: 27 March)

Event Time Altitude Azimuth Distance (km) Brightness Sun altitude
Rises 19:09:29 0° 318° (NW) 3,990 6.3 -24.6°
Reaches altitude 10° 19:12:15 10° 318° (NW) 2,993 5.6 -25.1°
Maximum altitude 19:19:20 87° 232° (SW) 1,074 2.6 -26.2°
Enters shadow 19:21:29 48° 145° (SE) 1,356 2.9 -26.6°
